Location: Bonn
(50.7330°N, 7.1000°E)
Time: 17:12:37
(UTC+02:00)

Cosmos 1933 Rocket - Visible Passes

Search period start: 27 August 2016 00:00
Search period end: 06 September 2016 00:00
Orbit: 606 x 631 km, 82.5° (Epoch: 26 August)

Date Brightness Start Highest point End Pass type
(mag) Time Alt. Az. Time Alt. Az. Time Alt. Az.
27 Aug 5.2 01:55:06 10° N 01:58:42 28° ENE 01:58:42 28° ENE visible
27 Aug 4.7 03:32:51 10° NNW 03:35:50 31° WNW 03:35:50 31° WNW visible
28 Aug 4.7 02:12:08 10° N 02:15:36 41° NE 02:15:36 41° NE visible
28 Aug 5.4 03:50:37 10° NW 03:52:43 19° WNW 03:52:43 19° WNW visible
29 Aug 6.2 00:53:32 10° NE 00:55:07 12° ENE 00:55:23 12° ENE visible
29 Aug 4.5 02:29:20 10° N 02:32:30 46° N 02:32:30 46° N visible
29 Aug 5.9 04:08:57 10° NW 04:09:38 12° WNW 04:09:38 12° WNW visible
30 Aug 5.8 01:09:39 10° NNE 01:12:18 18° ENE 01:12:18 18° ENE visible
30 Aug 4.8 02:46:40 10° NNW 02:49:26 36° NNW 02:49:26 36° NNW visible
31 Aug 5.4 01:26:25 10° N 01:29:15 26° NE 01:29:15 26° NE visible
31 Aug 5.3 03:04:13 10° NNW 03:06:23 24° NW 03:06:23 24° NW visible
01 Sep 5.1 01:43:27 10° N 01:46:13 33° NNE 01:46:13 33° NNE visible
01 Sep 5.8 03:22:00 10° NW 03:23:20 16° NW 03:23:20 16° NW visible
02 Sep 6.2 00:24:42 10° NE 00:26:03 12° NE 00:26:03 12° NE visible
02 Sep 5.1 02:00:40 10° N 02:03:11 34° N 02:03:11 34° N visible
03 Sep 5.9 00:40:55 10° NNE 00:43:02 18° NE 00:43:02 18° NE visible
03 Sep 5.4 02:18:02 10° NNW 02:20:10 27° NNW 02:20:10 27° NNW visible
04 Sep 5.6 00:57:44 10° N 01:00:02 24° NNE 01:00:02 24° NNE visible
04 Sep 5.7 02:35:34 10° NNW 02:37:10 20° NW 02:37:10 20° NW visible
05 Sep 5.5 01:14:47 10° N 01:17:03 28° NNE 01:17:03 28° NNE visible
05 Sep 6.1 02:53:24 10° NW 02:54:11 13° NW 02:54:11 13° NW visible
05 Sep 6.2 23:55:53 10° NNE 23:56:56 12° NE 23:56:56 12° NE visible
